Weather in Sapozhok

Russia / Saratov Oblast     52°19′48″N   43°59′04″E
temp.,
°C
wind,
m/s
gust,
m/s
humid.,
%
clouds,
%
prec.,
mm/h
press.,
hPa
HPBL,
m
6 may, thu
thu601:00+7sw47780 0.0 1016106
04:00+6sw46805 0.0 101797
07:00+8ssw377912 0.0 1017169
10:00+14ssw6859100 0.0 1017702
13:00+17ssw6748100 0.0 10161805
16:00+17ssw6746100 0.0 10151963
19:00+15ssw4760100 0.0 1015273
22:00+11s4871100 0.0 1015138
7 may, fri
fri701:00+11s51268100 0.0 1015262
04:00+10s51363100 0.0 1014290
07:00+11s51363100 0.0 1014377
10:00+13s61163100 0.0 1013513
13:00+14sw5763100 0.0 1014722
16:00+14wnw557499 0.3 1014872
19:00+9nw578228 0.5 1016511
22:00+7nne35930 0.5 1018100
8 may, sat
sat801:00+5nne229229 0.0 101816
04:00+5nne119249 0.0 101810
07:00+6ese119093 0.0 101775
10:00+12sse456827 0.0 1015624
13:00+16ssw564382 0.0 10141103
16:00+18ssw784683 0.0 10131317
19:00+16s6116399 0.0 1011507
22:00+14sse41072100 0.0 1011244
9 may, sun
sun901:00+14s61671100 0.3 1010486
04:00+11ssw4993100 1.6 1010246
07:00+10nw4792100 0.5 1012378
10:00+9nnw5793100 2.9 1013438
13:00+7nnw6894100 5.7 1014463
16:00+7n5993100 9.3 1016576
19:00+7n71192100 0.8 1017568
22:00+6n71294100 1.9 1019535
10 may, mon
mon1001:00+6nne81493100 0.8 1019590
04:00+6nne91694100 2.7 1019521
07:00+7nne91693100 0.6 1021549
10:00+8nne81691100 1.1 1023544
13:00+12ne101379100 0.0 1023753
16:00+15ne91273100 0.0 1023851
19:00+14ne9147999 0.0 1023694
22:00+11ne81685100 0.0 1024477